| time (UTC) | temp F | wind direction | speed MPH | gust MPH | rain 1hr in | rain 24hr in | rain mn in | humidity % | barometer mb |
| 20260506073037 | 68 | 0 | 0.0 | 2.0 | 0.00 | 0.00 | 0.00 | 81 | 1012.6 |
| 20260506071535 | 68 | 143 | 0.0 | 1.0 | 0.00 | 0.00 | 0.00 | 80 | 1012.7 |
| 20260506061538 | 69 | 0 | 0.0 | 1.0 | 0.00 | 0.00 | 0.00 | 78 | 1013.2 |
| 20260506044544 | 70 | 301 | 1.0 | 3.0 | 0.00 | 0.00 | 0.00 | 75 | 1013.2 |
| 20260506043038 | 70 | 252 | 1.0 | 3.0 | 0.00 | 0.00 | 0.00 | 75 | 1012.9 |
| 20260506041541 | 70 | 0 | 0.0 | 2.0 | 0.00 | 0.00 | 0.00 | 74 | 1013.2 |
| 20260506040039 | 70 | 244 | 0.0 | 4.0 | 0.00 | 0.00 | 0.00 | 74 | 1013.2 |
| 20260506034540 | 71 | 327 | 0.0 | 5.0 | 0.00 | 0.00 | 0.00 | 74 | 1013.2 |
| 20260506033036 | 71 | 248 | 0.0 | 3.0 | 0.00 | 0.00 | 0.00 | 73 | 1013.2 |
| 20260506031538 | 71 | 0 | 0.0 | 4.0 | 0.00 | 0.00 | 0.00 | 72 | 1013.2 |
| 20260506030055 | 70 | 289 | 0.0 | 0.0 | 0.00 | 0.00 | 0.00 | 71 | 1013.0 |
| 20260506024551 | 71 | 0 | 0.0 | 0.0 | 0.00 | 0.00 | 0.00 | 70 | 1012.8 |
| 20260506023035 | 70 | 0 | 0.0 | 0.0 | 0.00 | 0.00 | 0.00 | 70 | 1012.8 |
| 20260506021541 | 71 | 0 | 0.0 | 0.0 | 0.00 | 0.00 | 0.00 | 69 | 1012.6 |
| 20260506020039 | 71 | 0 | 0.0 | 0.0 | 0.00 | 0.00 | 0.00 | 69 | 1012.7 |
| 20260506014553 | 71 | 0 | 0.0 | 0.0 | 0.00 | 0.00 | 0.00 | 68 | 1012.4 |
| 20260506013036 | 71 | 0 | 0.0 | 0.0 | 0.00 | 0.00 | 0.00 | 67 | 1012.5 |
| 20260506011538 | 72 | 0 | 0.0 | 0.0 | 0.00 | 0.00 | 0.00 | 67 | 1012.9 |
| 20260506010049 | 72 | 0 | 0.0 | 0.0 | 0.00 | 0.00 | 0.00 | 67 | 1012.7 |
| 20260506004548 | 73 | 0 | 0.0 | 0.0 | 0.00 | 0.00 | 0.00 | 65 | 1012.4 |
| 20260506003042 | 73 | 0 | 0.0 | 0.0 | 0.00 | 0.00 | 0.00 | 64 | 1012.2 |
| 20260506001535 | 74 | 0 | 0.0 | 0.0 | 0.00 | 0.00 | 0.00 | 63 | 1012.5 |
| 20260506000041 | 74 | 0 | 0.0 | 0.0 | 0.00 | 0.00 | 0.00 | 63 | 1012.8 |
| 20260505234536 | 75 | 0 | 0.0 | 0.0 | 0.00 | 0.00 | 0.00 | 62 | 1012.7 |
| 20260505233035 | 75 | 0 | 0.0 | 3.0 | 0.00 | 0.00 | 0.00 | 61 | 1012.9 |
| 20260505231538 | 75 | 0 | 0.0 | 3.0 | 0.00 | 0.00 | 0.00 | 60 | 1012.9 |
| 20260505230044 | 75 | 311 | 0.0 | 2.0 | 0.00 | 0.00 | 0.00 | 60 | 1012.8 |
| 20260505224541 | 76 | 299 | 0.0 | 3.0 | 0.00 | 0.00 | 0.00 | 60 | 1013.1 |
| 20260505223041 | 76 | 0 | 0.0 | 3.0 | 0.00 | 0.00 | 0.00 | 59 | 1013.2 |
| 20260505221536 | 76 | 245 | 0.0 | 4.0 | 0.00 | 0.00 | 0.00 | 58 | 1013.0 |
| 20260505220041 | 76 | 240 | 0.0 | 5.0 | 0.00 | 0.00 | 0.00 | 59 | 1013.0 |
| 20260505214536 | 77 | 246 | 1.0 | 4.0 | 0.00 | 0.00 | 0.00 | 58 | 1013.1 |
| 20260505213046 | 77 | 343 | 1.0 | 6.0 | 0.00 | 0.00 | 0.00 | 58 | 1013.0 |
| 20260505211543 | 77 | 331 | 1.0 | 4.0 | 0.00 | 0.00 | 0.00 | 58 | 1013.1 |
| 20260505210036 | 77 | 301 | 1.0 | 8.0 | 0.00 | 0.00 | 0.00 | 57 | 1013.0 |
| 20260505204537 | 77 | 250 | 0.0 | 2.0 | 0.00 | 0.00 | 0.00 | 58 | 1013.2 |
| 20260505203041 | 77 | 278 | 1.0 | 6.0 | 0.00 | 0.00 | 0.00 | 57 | 1013.3 |
| 20260505201543 | 78 | 262 | 1.0 | 4.0 | 0.00 | 0.00 | 0.00 | 55 | 1013.4 |
| 20260505200038 | 78 | 276 | 0.0 | 4.0 | 0.00 | 0.00 | 0.00 | 57 | 1013.7 |
| 20260505194538 | 78 | 156 | 1.0 | 5.0 | 0.00 | 0.00 | 0.00 | 56 | 1013.9 |
| 20260505193055 | 78 | 76 | 0.0 | 4.0 | 0.00 | 0.00 | 0.00 | 56 | 1013.9 |
| 20260505191540 | 79 | 0 | 1.0 | 5.0 | 0.00 | 0.00 | 0.00 | 55 | 1014.0 |
| 20260505190043 | 78 | 261 | 1.0 | 4.0 | 0.00 | 0.00 | 0.00 | 56 | 1014.2 |
| 20260505184539 | 78 | 103 | 0.0 | 4.0 | 0.00 | 0.00 | 0.00 | 56 | 1014.5 |
| 20260505183037 | 77 | 311 | 1.0 | 4.0 | 0.00 | 0.00 | 0.00 | 57 | 1014.7 |
| 20260505181536 | 76 | 190 | 1.0 | 4.0 | 0.00 | 0.00 | 0.00 | 58 | 1014.7 |
| 20260505180040 | 76 | 244 | 0.0 | 5.0 | 0.00 | 0.00 | 0.00 | 58 | 1015.0 |
| 20260505174533 | 76 | 255 | 1.0 | 4.0 | 0.00 | 0.00 | 0.00 | 57 | 1015.1 |
| 20260505173039 | 77 | 103 | 0.0 | 5.0 | 0.00 | 0.00 | 0.00 | 56 | 1015.2 |
| 20260505171546 | 77 | 358 | 1.0 | 4.0 | 0.00 | 0.00 | 0.00 | 55 | 1015.4 |
| 20260505170039 | 76 | 309 | 0.0 | 3.0 | 0.00 | 0.00 | 0.00 | 60 | 1015.7 |
| 20260505164540 | 76 | 314 | 1.0 | 5.0 | 0.00 | 0.00 | 0.00 | 59 | 1015.7 |
| 20260505163039 | 76 | 184 | 0.0 | 3.0 | 0.00 | 0.00 | 0.00 | 59 | 1015.9 |
| 20260505161543 | 75 | 0 | 0.0 | 4.0 | 0.00 | 0.00 | 0.00 | 60 | 1015.7 |
| 20260505153043 | 74 | 299 | 2.0 | 8.0 | 0.00 | 0.00 | 0.00 | 60 | 1015.9 |
| 20260505151538 | 73 | 294 | 1.0 | 4.0 | 0.00 | 0.00 | 0.00 | 64 | 1015.9 |
| 20260505124543 | 60 | 0 | 0.0 | 1.0 | 0.00 | 0.00 | 0.00 | 80 | 1015.2 |
| 20260505123049 | 58 | 0 | 0.0 | 0.0 | 0.00 | 0.00 | 0.00 | 84 | 1014.9 |
| 20260505121537 | 57 | 0 | 0.0 | 0.0 | 0.00 | 0.00 | 0.00 | 85 | 1014.6 |
| 20260505120051 | 56 | 0 | 0.0 | 0.0 | 0.00 | 0.00 | 0.00 | 86 | 1014.7 |
| 20260505114538 | 55 | 0 | 0.0 | 0.0 | 0.00 | 0.00 | 0.00 | 87 | 1014.4 |
| 20260505113034 | 54 | 0 | 0.0 | 0.0 | 0.00 | 0.00 | 0.00 | 87 | 1014.4 |
| 20260505111534 | 54 | 0 | 0.0 | 0.0 | 0.00 | 0.00 | 0.00 | 85 | 1014.0 |
| 20260505101538 | 55 | 0 | 0.0 | 0.0 | 0.00 | 0.00 | 0.00 | 84 | 1013.7 |
| 20260505100034 | 56 | 0 | 0.0 | 0.0 | 0.00 | 0.00 | 0.00 | 83 | 1013.8 |
| 20260505094539 | 56 | 0 | 0.0 | 0.0 | 0.00 | 0.00 | 0.00 | 83 | 1013.9 |
| 20260505093040 | 56 | 0 | 0.0 | 0.0 | 0.00 | 0.00 | 0.00 | 82 | 1014.2 |
| 20260505091538 | 57 | 0 | 0.0 | 0.0 | 0.00 | 0.00 | 0.00 | 81 | 1014.2 |
| 20260505090034 | 57 | 0 | 0.0 | 0.0 | 0.00 | 0.00 | 0.00 | 79 | 1014.2 |
| 20260505084552 | 57 | 0 | 0.0 | 0.0 | 0.00 | 0.00 | 0.00 | 80 | 1014.4 |
| 20260505083057 | 57 | 0 | 0.0 | 0.0 | 0.00 | 0.00 | 0.00 | 80 | 1014.4 |
| 20260505081553 | 57 | 0 | 0.0 | 0.0 | 0.00 | 0.00 | 0.00 | 79 | 1014.4 |